Tracking 35334 objects as of 12-Sep-2026
HD Live streaming from Space Station
objects crossing your sky now

JILIN-01 GAOFEN 3G

Track JILIN-01 GAOFEN 3G now!
10-day predictions


NORAD ID: 46459
Int'l Code: 2020-065F
Launch date: September 15, 2020
Source: People's Republic of China (PRC)
Launch site: Yellow Sea Launch Area, China (YSLA)
Your satellite tracking list
Your tracking list is empty




NASA's NSSDC Master Catalog

Two Line Element Set (TLE):
1 46459U 20065F   26255.28859807  .00493794  11175-3  85033-3 0  9994
2 46459  97.2110 316.4626 0003517 194.3274 165.7907 16.02404239333717
Source of the keplerian elements: AFSPC